Wetbulb
51.84 52.16 51.85 51.18 51.41 51.73 52.73 53.53 54.37 54.94 53.53 53.51 52.76 52.40 52.47 52.97 50.62 52.99 51.12 49.72 49.92 49.36
51.74 51.11 51.11 51.08 50.23 51.04 52.53 54.26 54.50 54.84 53.35 53.78 53.17 53.74 53.31 52.60 50.00 49.83 49.50 49.52 50.32 49.03
52.34 52.06 50.68 50.05 49.49 50.07 50.43 51.31 52.90 53.95 53.33 53.64 53.76 53.60 52.42 51.38 50.76 49.94 49.76 50.60 51.15 49.71
50.18 51.80 50.05 49.33 50.03 50.44 50.14 50.88 52.51 53.31 53.47 53.58 52.99 54.06 52.03 51.81 53.13 50.93 51.22 53.40 53.36 52.25
47.11 48.95 47.69 48.43 49.78 50.85 51.04 52.01 51.99 53.19 52.54 52.74 53.08 52.84 52.08 53.36 54.13 51.61 52.15 52.50 53.89 50.46
47.15 46.87 47.48 48.12 49.20 50.08 50.69 52.23 53.01 52.77 52.56 53.23 53.99 54.66 54.47 54.23 53.54 51.10 53.04 51.47 52.34 51.25
46.55 47.25 47.43 48.27 48.40 49.64 50.97 52.03 51.94 51.51 51.77 53.13 54.91 54.74 54.76 54.28 52.21 50.29 51.09 53.14 52.29 49.86
46.38 49.49 48.14 47.78 48.16 49.26 50.84 53.40 54.20 53.28 51.20 52.09 52.35 54.13 53.69 53.80 50.13 50.24 49.79 51.26 53.61 51.67
45.60 46.36 46.84 47.12 47.50 48.11 49.41 52.02 53.17 53.29 53.60 52.60 52.69 52.38 52.18 52.37 49.59 51.58 51.51 52.72 51.76 51.92
44.90 45.46 46.23 46.80 47.05 47.43 47.34 48.15 51.08 52.56 53.28 52.47 52.39 50.42 49.61 51.65 50.41 49.73 48.96 51.31 53.15 50.42
44.76 45.12 45.93 45.76 45.32 45.44 47.66 47.02 48.84 51.58 52.30 52.30 52.54 49.94 47.98 48.94 50.27 48.40 48.72 50.44 51.20 48.49
44.74 44.95 44.72 44.13 43.39 44.69 45.27 45.82 49.45 52.43 52.60 52.07 51.69 49.26 47.56 48.39 50.37 48.28 47.55 49.25 51.45 50.45
44.51 45.60 43.68 42.31 42.25 46.91 46.06 48.44 50.48 52.65 53.28 51.99 50.35 48.37 45.15 47.19 49.56 49.05 46.64 48.32 49.74 50.35
43.75 41.92 42.22 41.47 41.02 44.05 48.76 50.66 47.38 50.60 52.23 51.56 51.29 49.98 45.41 44.25 45.13 45.84 46.67 47.32 49.88 49.39
MSLP
1018.34 1018.44 1018.26 1018.06 1017.87 1017.59 1017.24 1016.66 1016.23 1016.10 1015.99 1015.87 1015.84 1016.00 1016.15 1016.47 1016.57 1016.70 1016.76 1016.73 1016.87 1016.76
1018.02 1018.14 1018.02 1017.62 1017.36 1017.05 1016.66 1016.31 1015.82 1015.63 1015.47 1015.59 1015.66 1015.66 1015.74 1015.92 1015.95 1016.22 1016.17 1016.04 1016.04 1016.01
1017.85 1017.55 1017.59 1017.49 1017.15 1016.76 1016.16 1015.80 1015.48 1015.23 1015.07 1015.10 1015.12 1015.23 1015.40 1015.37 1015.42 1015.70 1015.54 1015.43 1015.46 1015.22
1017.96 1017.58 1017.34 1017.14 1016.71 1016.29 1015.81 1015.32 1014.93 1014.62 1014.47 1014.48 1014.60 1014.77 1014.90 1014.87 1014.86 1015.15 1014.98 1014.90 1014.79 1014.63
1017.76 1017.49 1017.37 1016.87 1016.33 1015.82 1015.30 1014.72 1014.29 1013.95 1013.83 1014.11 1014.19 1014.35 1014.56 1014.42 1014.34 1014.57 1014.55 1014.41 1014.25 1014.26
1017.82 1017.55 1017.16 1016.66 1016.12 1015.50 1014.83 1014.21 1013.76 1013.51 1013.43 1013.50 1013.73 1013.76 1013.97 1014.14 1014.10 1014.01 1013.97 1013.98 1013.98 1013.86
1017.90 1017.37 1016.87 1016.39 1015.87 1015.27 1014.58 1013.96 1013.45 1013.25 1013.24 1013.01 1013.26 1013.35 1013.40 1013.91 1013.83 1013.63 1013.69 1013.65 1013.64 1013.55
1017.76 1017.10 1016.63 1016.14 1015.62 1014.97 1014.35 1013.81 1013.26 1013.10 1012.87 1012.84 1012.97 1013.05 1013.27 1013.28 1013.46 1013.48 1013.53 1013.54 1013.44 1013.34
1017.60 1016.99 1016.53 1016.05 1015.50 1014.78 1014.23 1013.69 1013.23 1012.92 1012.67 1012.61 1012.63 1012.62 1012.71 1013.17 1013.11 1013.10 1013.30 1013.51 1013.29 1013.24
1017.53 1017.03 1016.45 1015.94 1015.28 1014.61 1014.09 1013.62 1013.25 1012.79 1012.50 1012.25 1012.17 1012.26 1012.46 1012.64 1012.93 1013.07 1013.27 1013.36 1013.27 1013.48
1017.47 1016.94 1016.35 1015.78 1015.10 1014.52 1013.84 1013.45 1013.08 1012.54 1012.26 1012.12 1011.96 1011.84 1012.08 1012.28 1012.67 1013.00 1013.09 1013.20 1013.31 1013.46
1017.36 1016.90 1016.32 1015.68 1015.07 1014.38 1013.74 1013.20 1012.78 1012.30 1011.92 1011.67 1011.60 1011.66 1011.87 1012.10 1012.52 1013.08 1013.20 1013.10 1013.11 1013.19
1017.17 1016.66 1016.25 1015.75 1015.10 1014.23 1013.70 1013.11 1012.68 1012.10 1011.71 1011.59 1011.36 1011.35 1011.53 1011.87 1012.31 1012.98 1013.23 1013.11 1013.06 1013.24
1016.85 1016.49 1015.93 1015.59 1015.00 1014.40 1013.57 1012.97 1012.73 1012.31 1011.73 1011.56 1011.39 1011.24 1011.45 1011.93 1012.49 1012.86 1013.10 1013.16 1013.05 1013.02
Wind_Speed
6 4 5 6 6 6 6 6 5 5 6 6 6 5 6 4 4 4 5 6 6 4
5 6 6 8 6 4 7 7 6 7 5 6 7 6 5 4 6 5 5 6 5 5
7 6 6 6 8 7 7 6 7 8 7 6 6 5 6 5 5 6 5 4 6 4
7 7 6 6 7 8 7 8 8 9 7 7 6 6 6 5 5 6 6 4 6 5
7 6 7 7 8 9 9 8 9 8 6 5 5 5 5 5 5 6 5 6 5 4
7 7 7 7 8 8 8 9 6 5 5 5 5 3 1 5 6 7 5 5 5 4
7 7 6 7 7 8 7 8 6 4 5 5 5 4 2 7 6 5 5 4 4 3
7 6 7 7 8 7 6 5 4 5 5 4 5 5 5 4 6 5 4 3 2 2
7 7 7 7 8 7 7 5 4 5 6 5 4 8 7 6 6 6 6 4 2 3
7 7 7 8 7 7 6 5 5 5 4 4 6 6 8 8 5 5 4 3 4 4
7 7 7 7 7 7 5 5 5 4 4 3 4 8 7 8 6 4 5 4 5 2
7 7 7 7 8 7 6 5 4 4 5 3 4 7 8 10 6 5 4 3 4 4
6 6 6 7 8 5 4 4 4 6 4 4 5 3 8 6 4 4 2 3 2 3
6 6 6 7 4 6 6 5 4 5 5 5 2 4 8 9 5 4 3 3 1 2
Wind_Direction
262 263 267 267 277 279 274 261 256 252 254 249 231 227 228 216 229 221 228 241 225 233
265 267 265 277 276 267 277 277 261 257 248 245 250 230 234 229 226 215 239 245 251 240
259 255 274 293 287 287 277 263 265 252 229 239 237 235 238 228 225 222 250 246 261 259
296 294 296 284 284 280 275 275 269 252 230 221 229 230 228 238 241 234 255 259 250 267
290 298 295 293 285 287 290 285 268 250 214 236 234 244 250 249 232 230 241 256 267 263
300 298 292 294 296 295 290 292 284 237 212 222 213 195 232 271 241 222 227 252 257 252
301 285 294 298 299 296 298 295 286 263 230 203 203 203 156 266 248 222 221 232 248 245
308 301 301 309 305 300 306 310 316 300 283 245 231 216 202 266 248 195 231 234 271 256
316 320 313 302 298 309 301 305 310 307 276 247 231 213 239 211 199 202 196 216 249 12
308 308 304 300 300 313 301 283 285 277 302 279 245 209 232 218 212 207 181 188 299 296
309 306 301 307 316 314 301 293 278 278 274 271 240 250 232 210 177 182 207 161 209 197
308 307 317 323 315 306 304 312 290 284 283 313 264 217 196 163 152 165 207 222 196 194
308 311 314 316 310 294 299 308 320 316 279 283 257 240 161 165 132 151 197 258 242 200
314 320 315 315 301 304 321 322 324 310 311 306 237 233 161 164 154 170 182 208 264 301